| time (UTC) | temp F | wind direction | speed MPH | gust MPH | rain 1hr in | rain 24hr in | rain mn in | humidity % | barometer mb |
| 20260503184538 | 60 | 192 | 3.0 | 8.0 | 0.00 | 0.00 | 0.00 | 81 | 1013.7 |
| 20260503183036 | 61 | 150 | 2.0 | 6.0 | 0.00 | 0.00 | 0.00 | 80 | 1013.6 |
| 20260503181535 | 61 | 162 | 1.0 | 5.0 | 0.00 | 0.00 | 0.00 | 81 | 1013.5 |
| 20260503180033 | 60 | 214 | 2.0 | 6.0 | 0.00 | 0.00 | 0.00 | 83 | 1013.5 |
| 20260503174530 | 59 | 197 | 0.0 | 4.0 | 0.00 | 0.00 | 0.00 | 84 | 1013.4 |
| 20260503173030 | 58 | 234 | 1.0 | 5.0 | 0.00 | 0.00 | 0.00 | 84 | 1013.6 |
| 20260503171527 | 58 | 181 | 0.0 | 5.0 | 0.00 | 0.00 | 0.00 | 84 | 1013.4 |
| 20260503110109 | 54 | 292 | 0.0 | 2.0 | 0.00 | 0.00 | 0.00 | 90 | 1011.0 |
| 20260503081538 | 56 | 69 | 0.0 | 0.0 | 0.00 | 0.00 | 0.00 | 85 | 1011.7 |
| 20260503071548 | 56 | 55 | 1.0 | 3.0 | 0.00 | 0.00 | 0.00 | 84 | 1011.6 |
| 20260503054535 | 56 | 153 | 0.0 | 0.0 | 0.00 | 0.00 | 0.00 | 85 | 1011.9 |
| 20260503053033 | 56 | 173 | 0.0 | 0.0 | 0.00 | 0.00 | 0.00 | 85 | 1012.0 |
| 20260503051529 | 56 | 173 | 0.0 | 0.0 | 0.00 | 0.00 | 0.00 | 85 | 1012.0 |
| 20260503050037 | 56 | 131 | 0.0 | 3.0 | 0.00 | 0.00 | 0.00 | 85 | 1012.0 |
| 20260503044531 | 56 | 134 | 0.0 | 2.0 | 0.00 | 0.00 | 0.00 | 85 | 1012.0 |
| 20260503043030 | 57 | 128 | 0.0 | 3.0 | 0.00 | 0.00 | 0.00 | 86 | 1011.7 |
| 20260503041535 | 56 | 282 | 0.0 | 0.0 | 0.00 | 0.00 | 0.00 | 86 | 1011.6 |
| 20260503040027 | 56 | 282 | 0.0 | 0.0 | 0.00 | 0.00 | 0.00 | 87 | 1011.3 |
| 20260503034527 | 55 | 286 | 0.0 | 0.0 | 0.00 | 0.00 | 0.00 | 86 | 1011.0 |
| 20260503033028 | 55 | 265 | 0.0 | 0.0 | 0.00 | 0.00 | 0.00 | 86 | 1010.8 |
| 20260503031526 | 55 | 264 | 0.0 | 2.0 | 0.00 | 0.00 | 0.00 | 85 | 1010.7 |
| 20260503030028 | 56 | 276 | 0.0 | 3.0 | 0.00 | 0.00 | 0.00 | 84 | 1010.6 |
| 20260503024524 | 56 | 291 | 1.0 | 4.0 | 0.00 | 0.00 | 0.00 | 83 | 1010.5 |
| 20260503023024 | 57 | 287 | 1.0 | 7.0 | 0.00 | 0.00 | 0.00 | 82 | 1010.4 |
| 20260503021525 | 57 | 284 | 0.0 | 5.0 | 0.00 | 0.00 | 0.00 | 82 | 1010.3 |
| 20260503020023 | 57 | 279 | 0.0 | 7.0 | 0.00 | 0.00 | 0.00 | 81 | 1010.4 |
| 20260503014521 | 58 | 282 | 1.0 | 10.0 | 0.00 | 0.00 | 0.00 | 81 | 1010.5 |
| 20260503013020 | 58 | 222 | 2.0 | 12.0 | 0.00 | 0.00 | 0.00 | 80 | 1010.6 |
| 20260503011521 | 59 | 242 | 3.0 | 9.0 | 0.00 | 0.00 | 0.00 | 79 | 1010.6 |
| 20260503010022 | 59 | 313 | 5.0 | 12.0 | 0.00 | 0.00 | 0.00 | 77 | 1010.7 |
| 20260503004518 | 60 | 247 | 3.0 | 11.0 | 0.00 | 0.00 | 0.00 | 77 | 1010.6 |
| 20260503003017 | 61 | 257 | 3.0 | 11.0 | 0.00 | 0.00 | 0.00 | 75 | 1010.7 |
| 20260503001515 | 61 | 214 | 2.0 | 11.0 | 0.00 | 0.00 | 0.00 | 75 | 1010.8 |
| 20260503000015 | 62 | 205 | 2.0 | 10.0 | 0.00 | 0.00 | 0.00 | 75 | 1011.0 |
| 20260502234520 | 62 | 250 | 3.0 | 11.0 | 0.00 | 0.00 | 0.00 | 75 | 1011.1 |
| 20260502233010 | 62 | 240 | 2.0 | 11.0 | 0.00 | 0.00 | 0.00 | 75 | 1011.3 |
| 20260502231510 | 62 | 298 | 4.0 | 12.0 | 0.00 | 0.00 | 0.00 | 75 | 1011.5 |
| 20260502230018 | 62 | 272 | 3.0 | 8.0 | 0.00 | 0.00 | 0.00 | 76 | 1011.7 |
| 20260502224506 | 62 | 229 | 4.0 | 10.0 | 0.00 | 0.00 | 0.00 | 76 | 1012.0 |
| 20260502223002 | 62 | 232 | 2.0 | 8.0 | 0.00 | 0.00 | 0.00 | 78 | 1012.3 |
| 20260502221603 | 62 | 229 | 3.0 | 6.0 | 0.00 | 0.00 | 0.00 | 77 | 1012.5 |
| 20260502220059 | 62 | 258 | 1.0 | 7.0 | 0.00 | 0.00 | 0.00 | 78 | 1012.8 |
| 20260502214556 | 62 | 238 | 1.0 | 9.0 | 0.00 | 0.00 | 0.00 | 79 | 1013.0 |
| 20260502213055 | 61 | 256 | 3.0 | 8.0 | 0.00 | 0.00 | 0.00 | 80 | 1013.1 |
| 20260502211553 | 61 | 232 | 2.0 | 8.0 | 0.00 | 0.00 | 0.00 | 82 | 1013.2 |
| 20260502210105 | 60 | 254 | 2.0 | 8.0 | 0.00 | 0.00 | 0.00 | 85 | 1013.3 |
| 20260502204554 | 60 | 211 | 2.0 | 7.0 | 0.00 | 0.00 | 0.00 | 85 | 1013.6 |
| 20260502203047 | 59 | 202 | 3.0 | 9.0 | 0.00 | 0.00 | 0.00 | 85 | 1013.9 |
| 20260502201551 | 59 | 230 | 1.0 | 7.0 | 0.00 | 0.00 | 0.00 | 87 | 1014.1 |
| 20260502200047 | 59 | 210 | 2.0 | 7.0 | 0.00 | 0.00 | 0.00 | 87 | 1014.4 |
| 20260502194542 | 58 | 240 | 2.0 | 8.0 | 0.00 | 0.00 | 0.00 | 87 | 1014.5 |
| 20260502193041 | 58 | 246 | 2.0 | 7.0 | 0.00 | 0.00 | 0.00 | 87 | 1014.5 |
| 20260502191550 | 58 | 159 | 1.0 | 6.0 | 0.00 | 0.00 | 0.00 | 89 | 1014.6 |
| 20260502190040 | 57 | 253 | 3.0 | 8.0 | 0.00 | 0.00 | 0.00 | 89 | 1014.6 |